カタログに戻る

CZ-6A DEB

運用中SSO
NORAD 54499·DEBRIS·🇨🇳 China

打ち上げ Nov 11, 2022 から Taiyuan Satellite Launch Center

Loading…

次のパス (今後24時間)

TLE

最新Source: Space-Track

元期: Sep 14, 2026, 14:26 UTC

1 54499U 22151JB  26257.60194866  .00000197  00000-0  61788-4 0  9995
2 54499  98.5720 311.3844 0134184  24.3160 336.4285 14.46578428202335

AllMySatでCZ-6A DEBをリアルタイム追跡

Download on the App Store